GW0262 Weather Reports


time (UTC)temp
F
wind
direction
speed
knots
gust
knots
rain 1hr
in
rain 24hr
in
rain mn
in
humidity
%
barometer
mb
20260507201600 54 109 0.9 3.5 0.00 0.05 0.05 80 1011.0
20260507200105 53 107 0.9 2.6 0.01 0.05 0.05 79 1011.0
20260507194600 53 123 0.9 4.3 0.02 0.05 0.05 78 1011.2
20260507193052 52 109 1.7 5.2 0.02 0.05 0.05 78 1011.3
20260507191553 52 127 1.7 7.8 0.02 0.05 0.05 80 1011.4
20260507190107 52 107 0.9 3.5 0.01 0.04 0.04 84 1011.6
20260507184554 52 103 1.7 5.2 0.00 0.03 0.03 74 1011.4
20260507183112 53 126 2.6 7.0 0.00 0.03 0.03 70 1011.4
20260507181558 54 117 3.5 7.8 0.00 0.03 0.03 65 1011.5
20260507180053 54 108 3.5 8.7 0.00 0.03 0.03 69 1011.7
20260507174602 54 36 0.9 2.6 0.00 0.03 0.03 74 1011.5
20260507173110 54 60 0.9 2.6 0.00 0.03 0.03 75 1011.9
20260507171559 55 360 0.0 2.6 0.00 0.03 0.03 76 1011.8
20260507170054 56 360 0.9 4.3 0.00 0.03 0.03 70 1011.9
20260507164633 56 47 2.6 5.2 0.00 0.03 0.03 68 1011.9
20260507163059 55 28 1.7 3.5 0.00 0.03 0.03 72 1012.1
20260507161603 55 32 0.9 3.5 0.00 0.03 0.03 72 1012.2
20260507160052 55 36 1.7 7.0 0.00 0.03 0.03 72 1012.5
20260507154600 55 351 2.6 7.0 0.00 0.03 0.03 73 1012.6
20260507153055 55 54 2.6 7.0 0.00 0.03 0.03 75 1012.8
20260507151553 56 61 1.7 4.3 0.02 0.03 0.03 79 1012.3
20260507150055 55 33 1.7 3.5 0.02 0.03 0.03 81 1012.3
20260507144600 55 32 0.9 2.6 0.02 0.07 0.03 84 1012.7
20260507143105 54 34 0.9 4.3 0.02 0.07 0.03 85 1012.5
20260507141551 56 33 2.6 6.1 0.00 0.05 0.01 76 1012.8
20260507140052 56 44 0.9 4.3 0.00 0.05 0.01 77 1012.8
20260507134557 56 46 1.7 3.5 0.00 0.10 0.01 79 1012.8
20260507133057 55 26 1.7 4.3 0.00 0.10 0.01 79 1013.0
20260507131605 55 57 0.9 2.6 0.00 0.10 0.01 81 1012.9
20260507130057 55 24 1.7 3.5 0.00 0.10 0.01 80 1012.7
20260507124602 55 34 0.9 3.5 0.00 0.11 0.01 82 1012.5
20260507123048 55 30 1.7 3.5 0.00 0.11 0.01 82 1012.7
20260507121555 55 32 1.7 4.3 0.00 0.11 0.01 83 1012.7
20260507120055 55 336 0.0 3.5 0.00 0.11 0.01 84 1012.5
20260507114609 55 51 1.7 4.3 0.00 0.11 0.01 84 1012.4
20260507113121 55 23 2.6 4.3 0.00 0.11 0.01 84 1012.2
20260507111556 55 5 1.7 4.3 0.00 0.11 0.01 85 1012.1
20260507110051 54 36 0.9 3.5 0.00 0.11 0.01 87 1011.8
20260507104557 54 37 0.9 3.5 0.00 0.11 0.01 87 1011.8
20260507103056 54 0 0.0 3.5 0.00 0.11 0.01 87 1012.0
20260507101553 54 80 0.0 3.5 0.00 0.11 0.01 87 1011.8
20260507100115 55 36 0.9 4.3 0.00 0.11 0.01 87 1012.0
20260507094557 55 57 1.7 3.5 0.00 0.11 0.01 88 1010.7
20260507093056 55 24 1.7 3.5 0.00 0.11 0.01 89 1011.6
20260507091629 55 25 0.9 2.6 0.00 0.11 0.01 90 1011.5
20260507090053 55 28 2.6 4.3 0.00 0.11 0.01 90 1011.4
20260507084604 56 57 2.6 7.0 0.00 0.11 0.01 91 1011.3
20260507083051 56 65 1.7 4.3 0.00 0.11 0.01 91 1011.1
20260507081558 56 38 2.6 5.2 0.00 0.11 0.01 91 1010.7
20260507080051 57 42 3.5 6.1 0.00 0.11 0.01 91 1010.9
20260507074556 57 50 2.6 3.5 0.00 0.11 0.01 92 1011.0
20260507073053 57 32 2.6 6.1 0.00 0.11 0.01 93 1010.3
20260507071552 57 57 1.7 4.3 0.00 0.11 0.01 94 1010.3
20260507070059 58 55 2.6 9.6 0.00 0.11 0.01 94 1010.0
20260507064555 62 9 3.5 7.0 0.00 0.11 0.01 95 1010.1
20260507063053 63 31 1.7 2.6 0.00 0.11 0.01 96 1010.1
20260507061556 63 307 0.0 1.7 0.00 0.11 0.01 95 1010.1
20260507060100 63 0 0.0 0.9 0.01 0.11 0.01 95 1009.9
20260507054557 63 0 0.9 1.7 0.01 0.11 0.01 95 1009.7
20260507053053 63 0 0.0 1.7 0.01 0.11 0.01 94 1008.9
20260507051552 64 0 0.0 0.9 0.01 0.11 0.01 94 1009.2
20260507050052 64 307 0.0 1.7 0.00 0.10 0.00 93 1009.1
20260507044606 65 0 0.0 1.7 0.00 0.10 0.00 92 1009.9
20260507043104 64 0 0.0 1.7 0.00 0.10 0.00 92 1010.0
20260507041604 65 0 0.0 0.9 0.00 0.10 0.00 90 1010.0
20260507040055 66 78 0.0 2.6 0.00 0.10 0.00 88 1009.9
20260507034554 67 301 0.0 2.6 0.00 0.10 0.10 86 1010.2
20260507033056 67 268 0.9 3.5 0.00 0.10 0.10 86 1010.3
20260507031553 66 0 0.9 3.5 0.00 0.10 0.10 87 1010.3
20260507030051 66 108 0.0 5.2 0.00 0.10 0.10 86 1010.0
20260507024554 67 310 0.9 5.2 0.00 0.10 0.10 86 1010.3
20260507023104 67 232 0.0 5.2 0.00 0.10 0.10 84 1009.8
20260507021555 67 34 0.9 6.1 0.00 0.10 0.10 85 1009.3
20260507020059 67 108 0.9 4.3 0.00 0.10 0.10 84 1009.3
20260507014556 67 0 0.9 3.5 0.00 0.10 0.10 83 1009.7
20260507013054 68 107 0.9 3.5 0.00 0.10 0.10 82 1009.5
20260507011551 67 55 0.9 3.5 0.00 0.10 0.10 83 1009.8
20260507010052 67 180 0.0 6.1 0.00 0.10 0.10 83 1009.8
20260507004553 68 248 0.0 5.2 0.00 0.10 0.10 82 1009.7
20260507003106 68 0 0.0 5.2 0.00 0.10 0.10 81 1009.5
20260507001615 68 0 0.9 3.5 0.00 0.10 0.10 81 1009.7
20260507000055 69 132 1.7 6.1 0.00 0.10 0.10 80 1009.5
20260506234555 69 190 1.7 5.2 0.00 0.10 0.10 80 1009.2
20260506233101 69 242 1.7 7.8 0.00 0.10 0.10 79 1009.7
20260506231606 70 328 1.7 7.8 0.00 0.10 0.10 78 1009.4
20260506230113 70 0 1.7 8.7 0.00 0.10 0.10 77 1009.2
20260506224554 70 103 0.9 7.0 0.00 0.10 0.10 77 1008.9
20260506223057 71 286 2.6 11.3 0.00 0.10 0.10 77 1009.1
20260506221609 71 223 1.7 6.1 0.00 0.10 0.10 77 1009.1
20260506220053 71 216 3.5 8.7 0.00 0.10 0.10 76 1009.2
20260506214555 71 195 3.5 8.7 0.00 0.10 0.10 77 1009.3
20260506213051 70 259 1.7 7.0 0.00 0.10 0.10 78 1008.9
20260506211554 70 150 1.7 11.3 0.00 0.10 0.10 78 1009.0
20260506210058 70 117 1.7 8.7 0.00 0.10 0.10 77 1009.1
20260506204557 70 0 2.6 7.8 0.00 0.10 0.10 77 1009.2
20260506203120 71 290 0.9 7.0 0.00 0.10 0.10 77 1009.4